Shelby — WCV6157 — position and weather

sailwx.info

Track history (hours):
 
Tides and Currents Weather Stations Pressure Air Temp Water Temp Dewpoint Dewpoint Depression Visibility Wind Speed Wind Dir Waves Ship Positions

Shelby

Owner: WEEKS MARINE, INC., CRANFORD, NJ. More information available from US FCC via Universal Licensing System and Coast Guard Vessel Documentation Center.

Last reported at 2014-Oct-31 20:32 UTC. Time now 2014-Oct-31 22:21 UTC.
Position N 40°31' W 074°05'.

Length 22 m; draft 3.1 m.

Type: Tug. MMSI: 366939080.

Date/timePositionNaut miles runAvg speedWind from/ knotsBaromVisibWave heightAir tempDewpointWater temp
2014-Oct-31 20:32N 40°31' W 074°05'7 7.5
2014-Oct-31 19:33N 40°38' W 074°03'7 7.2
2014-Oct-31 18:33N 40°45' W 074°01'4 4.2
2014-Oct-31 17:34N 40°41' W 074°03'15 4.7
2014-Oct-31 14:22N 40°30' W 074°16'0 0.0
2014-Oct-31 05:29N 40°30' W 074°15'12 1.2
2014-Oct-30 19:33N 40°37' W 074°03'4 3.7
2014-Oct-30 18:32N 40°41' W 074°05'3 2.9
2014-Oct-30 17:33N 40°39' W 074°07'11 0.8
2014-Oct-30 03:32N 40°30' W 074°15'0 0.2
2014-Oct-30 02:22N 40°30' W 074°16'0 0.1
2014-Oct-29 23:15N 40°29' W 074°15'0 0.0
2014-Oct-28 05:21N 40°29' W 074°15'0 0.0
2014-Oct-28 04:27N 40°29' W 074°15'8 2.4
2014-Oct-28 01:05N 40°37' W 074°12'1 1.8
2014-Oct-28 00:29N 40°38' W 074°12'0 0.0
2014-Oct-27 23:32N 40°38' W 074°12'0 0.0
2014-Oct-27 21:33N 40°38' W 074°12'8 1.3
2014-Oct-27 15:32N 40°35' W 074°03'4 4.6
2014-Oct-27 14:34N 40°39' W 074°05'5 4.7
2014-Oct-27 13:31N 40°38' W 074°12'0 0.0
2014-Oct-27 12:28N 40°38' W 074°12'0 0.0
2014-Oct-27 11:26N 40°38' W 074°12'3 3.9
2014-Oct-27 10:33N 40°39' W 074°07'3 2.7
2014-Oct-27 09:31N 40°41' W 074°05'0 0.0
2014-Oct-27 08:31N 40°41' W 074°05'0 0.0
2014-Oct-27 07:31N 40°41' W 074°05'0 0.0
2014-Oct-27 06:31N 40°41' W 074°05'0 0.0
2014-Oct-27 05:31N 40°41' W 074°05'0 0.0
2014-Oct-27 04:31N 40°41' W 074°05'0 0.0
2014-Oct-27 03:28N 40°41' W 074°05'0 0.0
2014-Oct-27 02:31N 40°41' W 074°05'0 0.0
2014-Oct-27 01:31N 40°41' W 074°05'0 0.0
2014-Oct-27 00:31N 40°41' W 074°05'0 0.0
2014-Oct-26 23:31N 40°41' W 074°05'0 0.0
2014-Oct-26 22:31N 40°41' W 074°05'0 0.0
2014-Oct-26 21:31N 40°41' W 074°05'0 0.1
2014-Oct-26 20:31N 40°41' W 074°05'4 3.1
2014-Oct-26 19:23N 40°38' W 074°08'3 1.5
2014-Oct-26 17:25N 40°42' W 074°08'1 0.8
2014-Oct-26 16:14N 40°41' W 074°09'0 0.5
2014-Oct-26 15:31N 40°40' W 074°08'0 0.0
2014-Oct-26 14:31N 40°40' W 074°08'0 0.0
2014-Oct-26 13:28N 40°40' W 074°08'2 1.7
2014-Oct-26 12:33N 40°42' W 074°07'3 1.1
2014-Oct-26 09:25N 40°45' W 074°05'0 0.0
2014-Oct-26 08:31N 40°45' W 074°05'0 0.0
2014-Oct-26 07:31N 40°45' W 074°05'0 0.0
2014-Oct-26 06:31N 40°44' W 074°05'0 0.0
2014-Oct-26 05:31N 40°44' W 074°05'0 0.0
2014-Oct-26 02:19N 40°45' W 074°05'0 0.0
2014-Oct-25 23:25N 40°44' W 074°05'0 0.0
2014-Oct-25 22:31N 40°45' W 074°05'0 0.0
2014-Oct-25 21:31N 40°44' W 074°05'0 0.0
2014-Oct-25 20:19N 40°45' W 074°05'0 0.0
2014-Oct-25 19:31N 40°45' W 074°05'0 0.0
2014-Oct-25 13:31N 40°45' W 074°05'0 0.0
2014-Oct-25 11:19N 40°44' W 074°05'2 0.1
2014-Oct-24 17:33N 40°43' W 074°06'4 3.6
2014-Oct-24 16:28N 40°40' W 074°09'2 1.9
2014-Oct-24 15:33N 40°39' W 074°07'2 2.4
2014-Oct-24 14:31N 40°41' W 074°05'0 0.0
2014-Oct-24 13:31N 40°41' W 074°05'0 0.0
2014-Oct-24 12:31N 40°41' W 074°05'0 0.0
2014-Oct-24 11:28N 40°41' W 074°05'0 0.0
2014-Oct-24 10:31N 40°41' W 074°05'0 0.0
2014-Oct-24 09:31N 40°41' W 074°05'0 0.0
2014-Oct-24 08:31N 40°41' W 074°05'0 0.0
2014-Oct-24 07:31N 40°41' W 074°05'0 0.0
2014-Oct-24 06:31N 40°41' W 074°05'0 0.3
2014-Oct-24 05:33N 40°41' W 074°04'6 6.1
2014-Oct-24 04:32N 40°46' W 074°00'0 0.2
2014-Oct-24 03:32N 40°46' W 074°00'1 0.5
2014-Oct-24 02:33N 40°46' W 074°00'5 4.6
2014-Oct-24 01:33N 40°42' W 074°02'3 2.5
2014-Oct-24 00:33N 40°41' W 074°05'0 0.0
2014-Oct-23 23:33N 40°41' W 074°05'0 0.0
2014-Oct-23 22:31N 40°41' W 074°04'0 0.1
2014-Oct-23 21:34N 40°41' W 074°05'0 0.0
2014-Oct-23 20:34N 40°41' W 074°05'0 0.0
2014-Oct-23 19:34N 40°41' W 074°05'0 0.0
2014-Oct-23 18:33N 40°41' W 074°05'0 0.0
2014-Oct-23 17:33N 40°41' W 074°05'0 0.0
2014-Oct-23 16:32N 40°41' W 074°05'3 3.5
2014-Oct-23 15:34N 40°42' W 074°00'6 2.1
2014-Oct-23 12:31N 40°47' W 073°55'7 7.0
2014-Oct-23 11:33N 40°41' W 074°01'3 3.0
2014-Oct-23 10:31N 40°41' W 074°05'0 0.0
2014-Oct-23 09:31N 40°41' W 074°05'0 0.0
2014-Oct-23 08:31N 40°41' W 074°05'0 0.0
2014-Oct-23 07:28N 40°41' W 074°05'0 0.0
2014-Oct-23 06:31N 40°41' W 074°05'0 0.0
2014-Oct-23 05:31N 40°41' W 074°05'0 0.0
2014-Oct-23 04:31N 40°41' W 074°05'0 0.0
2014-Oct-23 03:31N 40°41' W 074°05'0 0.0
2014-Oct-23 02:31N 40°41' W 074°05'0 0.0
2014-Oct-23 01:31N 40°41' W 074°05'0 0.0
2014-Oct-23 00:31N 40°41' W 074°05'0 0.0
2014-Oct-22 23:31N 40°41' W 074°05'0 0.1
2014-Oct-22 22:33N 40°41' W 074°05'0 0.3
2014-Oct-22 21:33N 40°41' W 074°04'3 3.4
2014-Oct-22 20:33N 40°39' W 074°08'  
Track history (hours):
 
Tides and Currents Weather Stations Pressure Air Temp Water Temp Dewpoint Dewpoint Depression Visibility Wind Speed Wind Dir Waves Ship Positions

Shelby

Owner: WEEKS MARINE, INC., CRANFORD, NJ. More information available from US FCC via Universal Licensing System and Coast Guard Vessel Documentation Center.

Last reported at 2014-Oct-31 20:32 UTC. Time now 2014-Oct-31 22:21 UTC.
Position N 40°31' W 074°05'.

Length 22 m; draft 3.1 m.

Type: Tug. MMSI: 366939080.

Date/timePositionNaut miles runAvg speedWind from/ knotsBaromVisibWave heightAir tempDewpointWater temp
2014-Oct-31 20:32N 40°31' W 074°05'7 7.5
2014-Oct-31 19:33N 40°38' W 074°03'7 7.2
2014-Oct-31 18:33N 40°45' W 074°01'4 4.2
2014-Oct-31 17:34N 40°41' W 074°03'15 4.7
2014-Oct-31 14:22N 40°30' W 074°16'0 0.0
2014-Oct-31 05:29N 40°30' W 074°15'12 1.2
2014-Oct-30 19:33N 40°37' W 074°03'4 3.7
2014-Oct-30 18:32N 40°41' W 074°05'3 2.9
2014-Oct-30 17:33N 40°39' W 074°07'11 0.8
2014-Oct-30 03:32N 40°30' W 074°15'0 0.2
2014-Oct-30 02:22N 40°30' W 074°16'0 0.1
2014-Oct-29 23:15N 40°29' W 074°15'0 0.0
2014-Oct-28 05:21N 40°29' W 074°15'0 0.0
2014-Oct-28 04:27N 40°29' W 074°15'8 2.4
2014-Oct-28 01:05N 40°37' W 074°12'1 1.8
2014-Oct-28 00:29N 40°38' W 074°12'0 0.0
2014-Oct-27 23:32N 40°38' W 074°12'0 0.0
2014-Oct-27 21:33N 40°38' W 074°12'8 1.3
2014-Oct-27 15:32N 40°35' W 074°03'4 4.6
2014-Oct-27 14:34N 40°39' W 074°05'5 4.7
2014-Oct-27 13:31N 40°38' W 074°12'0 0.0
2014-Oct-27 12:28N 40°38' W 074°12'0 0.0
2014-Oct-27 11:26N 40°38' W 074°12'3 3.9
2014-Oct-27 10:33N 40°39' W 074°07'3 2.7
2014-Oct-27 09:31N 40°41' W 074°05'0 0.0
2014-Oct-27 08:31N 40°41' W 074°05'0 0.0
2014-Oct-27 07:31N 40°41' W 074°05'0 0.0
2014-Oct-27 06:31N 40°41' W 074°05'0 0.0
2014-Oct-27 05:31N 40°41' W 074°05'0 0.0
2014-Oct-27 04:31N 40°41' W 074°05'0 0.0
2014-Oct-27 03:28N 40°41' W 074°05'0 0.0
2014-Oct-27 02:31N 40°41' W 074°05'0 0.0
2014-Oct-27 01:31N 40°41' W 074°05'0 0.0
2014-Oct-27 00:31N 40°41' W 074°05'0 0.0
2014-Oct-26 23:31N 40°41' W 074°05'0 0.0
2014-Oct-26 22:31N 40°41' W 074°05'0 0.0
2014-Oct-26 21:31N 40°41' W 074°05'0 0.1
2014-Oct-26 20:31N 40°41' W 074°05'4 3.1
2014-Oct-26 19:23N 40°38' W 074°08'3 1.5
2014-Oct-26 17:25N 40°42' W 074°08'1 0.8
2014-Oct-26 16:14N 40°41' W 074°09'0 0.5
2014-Oct-26 15:31N 40°40' W 074°08'0 0.0
2014-Oct-26 14:31N 40°40' W 074°08'0 0.0
2014-Oct-26 13:28N 40°40' W 074°08'2 1.7
2014-Oct-26 12:33N 40°42' W 074°07'3 1.1
2014-Oct-26 09:25N 40°45' W 074°05'0 0.0
2014-Oct-26 08:31N 40°45' W 074°05'0 0.0
2014-Oct-26 07:31N 40°45' W 074°05'0 0.0
2014-Oct-26 06:31N 40°44' W 074°05'0 0.0
2014-Oct-26 05:31N 40°44' W 074°05'0 0.0
2014-Oct-26 02:19N 40°45' W 074°05'0 0.0
2014-Oct-25 23:25N 40°44' W 074°05'0 0.0
2014-Oct-25 22:31N 40°45' W 074°05'0 0.0
2014-Oct-25 21:31N 40°44' W 074°05'0 0.0
2014-Oct-25 20:19N 40°45' W 074°05'0 0.0
2014-Oct-25 19:31N 40°45' W 074°05'0 0.0
2014-Oct-25 13:31N 40°45' W 074°05'0 0.0
2014-Oct-25 11:19N 40°44' W 074°05'2 0.1
2014-Oct-24 17:33N 40°43' W 074°06'4 3.6
2014-Oct-24 16:28N 40°40' W 074°09'2 1.9
2014-Oct-24 15:33N 40°39' W 074°07'2 2.4
2014-Oct-24 14:31N 40°41' W 074°05'0 0.0
2014-Oct-24 13:31N 40°41' W 074°05'0 0.0
2014-Oct-24 12:31N 40°41' W 074°05'0 0.0
2014-Oct-24 11:28N 40°41' W 074°05'0 0.0
2014-Oct-24 10:31N 40°41' W 074°05'0 0.0
2014-Oct-24 09:31N 40°41' W 074°05'0 0.0
2014-Oct-24 08:31N 40°41' W 074°05'0 0.0
2014-Oct-24 07:31N 40°41' W 074°05'0 0.0
2014-Oct-24 06:31N 40°41' W 074°05'0 0.3
2014-Oct-24 05:33N 40°41' W 074°04'6 6.1
2014-Oct-24 04:32N 40°46' W 074°00'0 0.2
2014-Oct-24 03:32N 40°46' W 074°00'1 0.5
2014-Oct-24 02:33N 40°46' W 074°00'5 4.6
2014-Oct-24 01:33N 40°42' W 074°02'3 2.5
2014-Oct-24 00:33N 40°41' W 074°05'0 0.0
2014-Oct-23 23:33N 40°41' W 074°05'0 0.0
2014-Oct-23 22:31N 40°41' W 074°04'0 0.1
2014-Oct-23 21:34N 40°41' W 074°05'0 0.0
2014-Oct-23 20:34N 40°41' W 074°05'0 0.0
2014-Oct-23 19:34N 40°41' W 074°05'0 0.0
2014-Oct-23 18:33N 40°41' W 074°05'0 0.0
2014-Oct-23 17:33N 40°41' W 074°05'0 0.0
2014-Oct-23 16:32N 40°41' W 074°05'3 3.5
2014-Oct-23 15:34N 40°42' W 074°00'6 2.1
2014-Oct-23 12:31N 40°47' W 073°55'7 7.0
2014-Oct-23 11:33N 40°41' W 074°01'3 3.0
2014-Oct-23 10:31N 40°41' W 074°05'0 0.0
2014-Oct-23 09:31N 40°41' W 074°05'0 0.0
2014-Oct-23 08:31N 40°41' W 074°05'0 0.0
2014-Oct-23 07:28N 40°41' W 074°05'0 0.0
2014-Oct-23 06:31N 40°41' W 074°05'0 0.0
2014-Oct-23 05:31N 40°41' W 074°05'0 0.0
2014-Oct-23 04:31N 40°41' W 074°05'0 0.0
2014-Oct-23 03:31N 40°41' W 074°05'0 0.0
2014-Oct-23 02:31N 40°41' W 074°05'0 0.0
2014-Oct-23 01:31N 40°41' W 074°05'0 0.0
2014-Oct-23 00:31N 40°41' W 074°05'0 0.0
2014-Oct-22 23:31N 40°41' W 074°05'0 0.1
2014-Oct-22 22:33N 40°41' W 074°05'0 0.3
2014-Oct-22 21:33N 40°41' W 074°04'3 3.4
2014-Oct-22 20:33N 40°39' W 074°08'  

Dump ship's entire track history